TimeMST,TemperatureF,Dew PointF,Humidity,Sea Level PressureIn,VisibilityMPH,Wind Direction,Wind SpeedMPH,Gust SpeedMPH,PrecipitationIn,Events,Conditions,WindDirDegrees,DateUTC
12:53 AM,39.0,30.9,73,29.96,10.0,Calm,Calm,-,N/A,,Clear,0,2012-11-07 07:53:00
1:53 AM,37.0,30.0,76,29.94,10.0,Calm,Calm,-,N/A,,Clear,0,2012-11-07 08:53:00
2:53 AM,36.0,28.9,76,29.91,10.0,Calm,Calm,-,N/A,,Clear,0,2012-11-07 09:53:00
3:53 AM,36.0,30.0,79,29.89,10.0,NW,3.5,-,N/A,,Clear,320,2012-11-07 10:53:00
4:53 AM,33.1,28.9,85,29.93,10.0,Calm,Calm,-,N/A,,Clear,0,2012-11-07 11:53:00
5:53 AM,36.0,28.9,76,29.92,10.0,South,6.9,-,N/A,,Clear,180,2012-11-07 12:53:00
6:53 AM,32.0,28.0,85,29.93,10.0,Calm,Calm,-,N/A,,Clear,0,2012-11-07 13:53:00
7:53 AM,36.0,30.9,82,29.93,10.0,SW,3.5,-,N/A,,Clear,220,2012-11-07 14:53:00
8:53 AM,48.0,37.9,68,29.87,10.0,South,4.6,-,N/A,,Clear,190,2012-11-07 15:53:00
9:53 AM,60.1,36.0,41,29.82,10.0,Calm,Calm,-,N/A,,Clear,0,2012-11-07 16:53:00
10:53 AM,69.1,32.0,25,29.77,10.0,NNW,3.5,-,N/A,,Clear,340,2012-11-07 17:53:00
11:53 AM,77.0,24.1,14,29.71,10.0,Variable,4.6,-,N/A,,Clear,0,2012-11-07 18:53:00
12:53 PM,78.1,23.0,13,29.69,10.0,NNW,5.8,-,N/A,,Clear,330,2012-11-07 19:53:00
1:53 PM,75.9,23.0,14,29.68,10.0,West,13.8,24.2,N/A,,Clear,270,2012-11-07 20:53:00
2:53 PM,75.9,23.0,14,29.68,10.0,West,18.4,-,N/A,,Clear,280,2012-11-07 21:53:00
3:53 PM,73.9,23.0,15,29.69,10.0,West,11.5,-,N/A,,Clear,280,2012-11-07 22:53:00
4:53 PM,64.9,27.0,24,29.72,10.0,West,10.4,-,N/A,,Clear,260,2012-11-07 23:53:00
5:53 PM,57.9,26.1,30,29.74,10.0,WSW,8.1,-,N/A,,Clear,250,2012-11-08 00:53:00
6:53 PM,59.0,26.1,28,29.76,10.0,WNW,9.2,-,N/A,,Clear,290,2012-11-08 01:53:00
7:53 PM,57.9,26.1,30,29.77,10.0,Variable,4.6,-,N/A,,Clear,0,2012-11-08 02:53:00
8:53 PM,51.1,37.9,61,29.87,10.0,NW,25.3,33.4,N/A,,Clear,320,2012-11-08 03:53:00
9:53 PM,46.9,35.1,63,29.92,10.0,NW,12.7,-,N/A,,Clear,310,2012-11-08 04:53:00
10:53 PM,46.9,33.1,59,29.91,10.0,NW,12.7,-,N/A,,Overcast,320,2012-11-08 05:53:00
11:53 PM,46.9,30.9,54,29.91,10.0,NW,11.5,-,N/A,,Overcast,320,2012-11-08 06:53:00